EHI
9 8 9 8 4 3 6 6 6 8 9 9 8 6 5 4 5 7 10 12 13 15 15 12 10 9 7 7 7 6 4 3 3 2 2 2 3 4 6 6 5 4 3
14 12 13 11 7 5 6 7 8 10 10 10 9 7 6 6 6 7 9 10 13 15 15 13 11 9 7 6 6 5 3 3 3 3 2 1 1 2 4 4 4 3 3
19 19 18 15 10 8 9 11 13 14 12 10 10 9 9 10 10 9 9 10 11 12 12 12 10 8 6 5 5 4 3 4 4 4 3 2 2 2 2 2 2 3 3
24 26 23 18 16 14 13 13 15 16 14 13 13 13 13 14 13 12 11 10 10 10 10 9 7 6 5 5 5 5 5 5 5 5 5 5 5 4 2 2 2 3 3
27 29 26 23 24 22 17 13 14 16 16 18 17 15 15 17 16 14 12 11 11 11 9 8 7 6 5 6 7 8 8 8 7 7 6 7 7 5 3 2 3 4 3
28 30 30 28 28 27 21 16 16 16 17 19 17 14 15 17 17 15 12 12 12 11 9 9 10 9 7 8 9 10 11 11 11 10 8 8 7 6 4 3 4 4 4
28 31 31 30 29 27 24 21 19 16 15 17 16 14 13 13 14 13 11 12 12 11 9 9 11 11 10 8 8 9 11 12 12 12 11 10 8 7 5 4 4 4 4
27 28 30 31 30 26 23 23 21 17 13 14 15 14 12 11 11 11 12 12 11 11 9 8 10 12 12 10 7 7 8 10 12 12 13 12 9 7 5 5 5 5 5
26 26 27 29 29 24 24 25 23 19 14 13 15 15 13 12 12 13 13 13 13 11 9 8 9 12 13 11 9 7 6 7 10 11 12 11 9 7 5 5 5 5 5
26 25 25 27 26 24 24 24 23 22 20 18 18 17 14 13 13 13 13 14 14 12 9 8 9 12 12 11 11 8 5 5 7 9 9 9 8 6 5 5 5 5 5
25 25 26 27 25 24 22 21 23 24 24 21 20 18 15 13 12 10 10 11 11 11 11 10 10 11 11 11 10 7 4 3 4 6 7 7 6 5 4 4 4 4 4
26 26 28 28 27 23 20 20 22 23 23 22 19 17 16 14 11 9 8 9 9 10 11 11 9 8 10 11 9 6 3 3 3 4 5 6 5 4 3 3 3 3 3
26 29 30 30 27 23 20 20 20 20 22 22 17 15 15 14 13 11 11 9 9 10 11 10 7 6 8 12 9 5 3 3 3 3 3 3 4 3 3 3 3 3 2
26 30 33 31 26 21 20 20 19 19 22 22 20 16 14 15 16 15 13 11 9 10 11 10 7 5 7 10 8 5 4 3 3 1 1 1 2 3 3 3 2 1 1
28 32 34 30 25 21 19 18 16 17 21 23 21 19 16 16 17 18 16 12 10 10 10 9 7 7 9 8 6 4 4 4 3 1 0 0 1 2 2 2 1 0 0
30 33 33 29 25 21 19 17 15 16 20 21 20 19 17 16 17 18 17 15 13 11 9 8 8 10 11 8 5 5 5 4 3 2 0 0 0 1 1 1 0 0 0
29 30 31 29 25 22 19 17 15 16 18 19 18 17 16 14 15 16 16 15 13 11 9 8 10 13 13 10 8 6 4 3 3 2 0 0 0 0 0 0 0 0 0
26 26 27 27 25 22 20 17 15 16 17 18 17 17 16 14 13 14 14 14 12 11 11 11 13 14 13 12 10 7 4 3 3 2 0 0 0 0 0 0 0 0 0
26 26 26 26 23 21 19 16 15 16 17 18 18 17 16 14 13 13 14 14 12 11 11 12 12 12 12 10 8 6 4 3 3 1 0 0 0 0 0 0 0 0 0
26 26 26 25 22 18 15 13 14 16 17 18 17 16 14 13 13 13 14 13 11 10 10 9 9 9 8 7 7 6 5 4 3 1 0 0 0 0 0 0 0 0 0
24 24 25 24 21 15 10 9 11 14 15 15 14 13 11 9 9 9 8 8 8 7 7 7 7 7 6 6 6 5 5 4 3 1 0 0 0 0 0 0 0 0 0
23 23 24 24 20 12 4 4 8 12 14 14 12 11 9 6 4 3 2 3 3 4 5 6 7 7 6 5 4 4 4 4 3 2 1 0 0 0 0 0 0 0 0
25 25 25 24 19 10 2 1 4 9 12 12 11 10 8 6 4 2 1 1 1 1 2 3 4 6 6 4 3 3 3 3 3 3 1 0 0 0 0 0 0 0 0
28 27 26 23 17 9 3 0 2 5 10 11 10 9 9 7 5 4 3 2 2 1 1 1 1 3 3 3 3 3 3 3 3 3 2 1 0 0 0 0 0 0 0
27 27 25 20 14 8 3 0 1 4 8 10 10 9 9 7 4 3 3 4 6 5 2 1 0 1 1 1 1 2 2 3 3 3 3 2 1 0 0 0 0 0 0
25 25 23 18 12 7 3 0 1 5 7 9 10 11 9 6 3 2 2 5 8 8 5 2 1 0 0 0 0 1 1 2 3 3 3 2 1 0 0 0 0 0 0
Wind_Speed
1 2 1 1 1 1 2 2 2 2 1 1 1 2 2 2 3 4 4 9 10 11 11 11 11 10 9 8 7 6 7 7 7 7 7 7 7 7 7 6 7 6 6
1 1 1 1 1 1 1 1 1 1 1 1 1 1 1 1 3 4 4 6 9 10 11 11 10 10 10 9 9 8 8 8 8 8 8 8 8 8 7 7 7 7 7
1 1 1 1 1 1 1 0 1 1 1 1 1 0 0 1 1 3 4 4 5 8 10 10 10 11 11 11 11 10 10 9 9 9 8 8 8 8 8 8 7 7 7
2 1 1 1 1 1 1 1 1 1 0 0 1 1 1 1 1 2 4 4 4 5 7 10 10 10 11 11 11 11 11 10 10 10 9 9 9 8 8 8 7 7 7
3 2 1 1 1 1 1 1 1 1 1 1 1 2 2 1 2 3 2 4 4 5 5 8 11 11 12 12 12 12 11 11 11 10 10 10 9 8 8 7 7 7 7
3 2 2 2 1 0 1 1 1 1 1 1 3 2 1 2 2 2 2 2 4 5 5 5 6 7 10 11 10 10 10 10 10 10 10 10 9 8 8 8 8 8 7
3 2 2 2 1 1 1 2 1 2 2 1 1 1 2 3 3 2 2 2 2 3 3 4 4 3 4 9 9 9 9 9 10 10 10 10 9 9 9 9 9 8 8
3 3 2 2 2 2 2 2 2 1 2 1 1 1 1 1 2 3 2 3 2 2 3 4 4 4 3 3 5 9 9 8 9 9 9 9 9 10 10 10 9 9 9
3 2 3 2 2 2 2 2 2 2 2 1 1 1 1 1 1 1 2 2 2 1 1 1 3 3 4 3 4 6 7 7 8 8 8 8 9 9 9 10 10 10 10
3 3 3 3 2 2 2 3 3 2 2 2 1 1 1 0 1 1 1 1 2 2 1 1 1 2 2 3 4 6 8 6 6 7 7 8 9 9 9 9 10 10 10
4 4 3 3 2 2 2 2 2 2 1 2 1 1 2 1 1 1 1 1 1 1 1 1 1 2 2 3 3 5 8 7 6 6 7 8 8 9 9 10 10 10 10
3 3 3 3 2 2 1 1 1 2 1 2 2 1 1 1 1 1 1 1 1 1 1 1 1 1 2 3 4 7 8 8 8 6 6 7 8 8 8 9 9 10 10
2 2 2 2 2 2 2 2 2 2 2 2 2 2 2 2 1 1 1 1 1 1 1 1 2 1 1 2 3 6 7 8 8 7 7 7 7 8 8 8 9 9 9
2 3 3 3 2 2 3 2 2 3 2 3 3 3 2 2 1 1 1 1 1 1 1 1 1 1 1 2 3 5 5 8 8 8 8 7 7 7 7 8 8 8 7
2 3 3 3 3 2 2 2 2 2 2 2 2 2 2 2 2 2 1 1 1 2 2 1 1 1 1 2 4 3 3 6 8 8 9 8 8 8 7 7 6 6 6
1 2 3 3 2 2 2 2 2 2 2 2 2 2 2 2 2 2 1 1 1 1 2 1 1 1 1 1 3 2 3 7 8 8 9 9 9 9 9 8 7 7 7
2 2 2 3 3 2 2 2 2 2 2 3 3 3 3 3 2 2 1 1 1 1 2 2 0 0 1 1 1 1 1 3 4 9 9 9 10 10 10 9 9 8 8
3 2 2 3 3 3 2 3 3 2 2 3 3 2 3 3 3 2 2 2 2 1 1 2 1 1 1 1 1 2 2 2 2 7 10 10 10 10 10 10 9 9 8
3 3 3 3 3 3 3 3 3 3 3 2 2 2 2 2 3 2 2 2 2 2 1 1 2 1 1 1 1 2 2 2 3 4 8 8 9 9 10 10 10 10 9
3 3 3 3 3 3 2 2 2 3 2 2 2 2 2 2 2 2 3 3 3 2 2 2 2 1 1 1 1 2 2 2 3 2 3 5 8 10 11 11 11 10 10
4 3 3 3 4 3 3 2 3 3 2 2 2 2 2 2 2 2 2 1 2 2 2 2 2 1 1 1 1 2 2 2 2 2 2 2 3 4 6 9 11 11 11
3 3 3 4 4 3 3 3 2 2 2 3 2 2 3 3 3 4 4 3 2 2 2 2 2 2 2 1 1 2 2 2 2 1 1 2 2 3 4 4 8 11 12
3 3 4 4 3 3 4 4 4 3 3 3 3 2 3 2 3 3 4 5 4 5 5 4 3 4 3 2 1 2 2 3 3 3 2 3 3 3 3 4 9 10 11
4 4 4 4 4 4 5 5 5 5 3 3 3 3 3 2 2 2 3 3 3 4 5 4 4 4 3 2 2 3 4 4 3 3 3 3 3 3 3 2 7 10 11
3 4 4 4 4 4 6 6 6 4 3 4 4 4 4 3 3 3 3 3 3 3 4 5 5 5 4 5 3 2 2 2 3 3 2 2 2 3 3 3 4 10 11
4 4 4 4 4 4 6 7 6 4 3 3 3 3 3 4 4 4 3 3 4 3 3 3 4 5 6 6 6 5 4 3 3 3 2 1 2 2 3 3 2 3 5
Wind_Direction
173 151 158 174 201 172 185 202 179 178 192 214 208 168 181 158 146 138 149 169 169 173 179 182 181 184 187 194 199 199 196 198 202 196 192 190 191 192 195 198 194 193 194
150 147 171 184 195 196 215 191 176 168 184 200 238 216 185 155 153 149 159 172 175 176 179 184 188 190 193 198 201 201 201 204 204 200 198 197 198 199 198 202 201 197 197
177 173 181 183 203 215 216 175 230 226 197 194 183 244 228 175 144 151 165 173 177 184 185 185 192 196 200 204 205 204 203 204 204 202 201 203 205 204 205 206 204 201 200
194 187 187 201 214 211 190 179 230 250 252 216 192 227 202 175 174 178 177 174 174 178 187 193 198 202 204 207 208 209 208 207 203 203 205 207 208 210 212 208 207 207 203
189 178 188 209 230 203 199 231 182 225 238 246 222 217 211 184 212 209 188 182 176 176 180 191 202 207 207 208 211 213 213 209 204 204 207 208 209 214 214 210 208 209 208
194 186 184 194 225 194 253 265 268 228 233 241 249 226 219 209 201 204 218 191 176 186 185 185 195 208 209 210 208 210 209 204 202 202 206 209 209 212 212 213 215 213 212
197 190 198 181 186 171 228 272 261 256 246 257 262 246 231 211 197 196 199 190 179 178 176 175 180 183 195 203 201 200 201 204 200 201 206 209 209 210 210 211 217 215 213
205 192 185 197 181 180 210 238 246 253 252 226 234 242 226 224 229 206 186 193 188 178 178 179 174 179 184 166 185 197 202 202 200 204 206 207 208 211 212 209 212 211 213
196 198 189 202 198 186 197 220 231 232 250 246 232 259 269 247 242 203 207 196 169 158 180 164 174 178 179 164 158 183 191 195 203 209 210 210 209 211 214 212 213 214 216
190 196 200 200 208 193 191 208 211 238 233 255 238 233 236 231 269 257 243 194 176 179 188 203 166 165 168 151 152 162 174 184 201 209 213 212 211 214 212 213 216 218 218
198 199 190 201 198 205 201 218 203 218 229 250 258 255 259 251 257 245 245 231 274 213 169 170 163 160 165 150 150 164 170 181 195 209 216 217 215 216 215 216 218 220 220
188 198 187 188 184 194 194 232 226 210 244 266 276 278 260 243 251 259 262 233 224 223 168 168 190 183 177 165 178 169 177 187 196 207 218 217 212 214 217 219 222 224 223
168 174 175 169 181 191 192 208 209 218 233 259 268 273 264 258 260 260 260 267 264 248 196 199 202 182 204 149 155 173 185 191 195 201 213 217 217 219 223 226 226 226 226
174 167 170 169 192 202 204 204 210 220 226 241 255 265 278 278 275 272 260 281 289 274 228 216 176 172 168 155 171 185 191 194 198 205 209 215 218 219 222 226 224 220 222
188 165 175 185 196 203 215 210 211 223 228 235 250 252 267 284 290 280 269 230 248 270 262 242 206 180 181 162 174 194 175 192 200 207 212 213 213 213 216 216 216 214 214
203 173 181 190 197 204 215 222 227 222 217 235 242 241 249 272 279 291 299 274 242 242 258 252 225 200 196 199 191 215 184 184 198 206 209 208 206 210 214 215 216 217 216
200 205 190 190 196 206 209 216 231 220 216 231 244 242 246 255 274 278 281 287 288 273 264 286 271 198 171 185 182 235 215 192 200 206 208 209 210 213 215 216 216 219 220
203 210 204 203 206 200 203 211 235 230 222 226 232 245 249 251 255 269 280 286 282 276 254 270 279 283 253 212 216 235 258 254 221 200 205 210 214 217 217 217 218 219 219
210 210 205 207 215 208 203 216 226 235 230 227 220 234 257 261 255 251 253 268 275 279 261 252 264 250 246 254 234 257 268 278 274 212 202 210 216 219 220 220 220 219 219
216 208 208 214 212 218 213 223 227 239 235 225 223 225 237 236 245 254 252 253 264 278 270 260 261 259 245 247 239 251 269 249 265 269 222 210 212 217 222 223 223 221 220
226 220 213 220 217 213 218 227 239 227 229 236 234 218 213 215 215 232 257 268 276 281 282 272 271 276 251 234 251 259 268 267 259 252 243 227 206 211 216 224 226 223 219
230 222 225 224 226 228 204 206 236 241 231 228 236 231 213 208 200 209 225 234 234 248 266 270 269 267 264 267 271 278 275 289 285 265 264 275 247 225 220 211 208 209 214
225 223 227 226 215 213 198 203 227 237 236 224 224 237 245 222 203 213 223 225 231 237 235 243 262 274 275 273 281 287 280 278 274 278 280 269 263 258 241 225 200 203 210
228 228 232 227 211 213 199 204 225 230 235 229 225 224 226 234 234 226 238 230 228 232 231 230 239 257 268 275 262 261 270 276 267 268 253 257 256 255 267 228 207 203 209
231 231 232 226 219 211 201 203 210 227 227 230 227 222 211 210 220 217 234 245 248 260 259 249 241 248 251 254 249 257 265 273 282 277 258 244 263 273 266 246 219 210 213
239 235 234 229 227 221 200 198 201 228 232 240 234 214 217 208 199 208 229 249 254 260 277 277 264 256 244 240 232 229 241 247 266 276 271 267 272 284 284 263 235 209 221